Tracking 27419 objects as of 9-Jun-2023
HD Live streaming from Space Station
objects crossing your sky now

SCOUT G-1 DEB

Track SCOUT G-1 DEB now!
10-day predictions


NORAD ID: 43331
Int'l Code: 1988-033M
Perigee: 1,010.2 km
Apogee: 1,269.7 km
Inclination: 90.3 °
Period: 108.0 minutes
Semi major axis: 7510 km
RCS: Unknown
Launch date: April 26, 1988
Source: United States (US)
Launch site: AIR FORCE WESTERN TEST RANGE (AFWTR)

Note: This is SATELLITE DEBRIS
Your satellite tracking list
Your tracking list is empty




NASA's NSSDC Master Catalog

Two Line Element Set (TLE):
1 43331U 88033M   23159.29052112  .00000420  00000-0  76619-3 0  9996
2 43331  90.3189 344.4570 0172762  34.4831 139.4300 13.33704285 89329
Source of the keplerian elements: AFSPC